Time,TemperatureF,DewpointF,PressureIn,WindDirection,WindDirectionDegrees,WindSpeedMPH,WindSpeedGustMPH,Humidity,HourlyPrecipIn,Conditions,Clouds,dailyrainin,SoftwareType,DateUTC
2013-10-04 00:11:00,53.0,52.0,-100.00,NNE,20,7.0,14.0,99,-99.99,,,-99.99,,2013-10-04 05:11:00,
2013-10-04 00:50:00,53.0,52.0,-100.00,NNE,20,7.0,14.0,99,-99.99,,,-99.99,,2013-10-04 05:50:00,
2013-10-04 00:59:00,53.0,52.0,-100.00,NNE,20,7.0,14.0,99,-99.99,,,-99.99,,2013-10-04 05:59:00,
2013-10-04 01:07:00,53.0,52.0,-100.00,NNE,20,7.0,14.0,99,-99.99,,,-99.99,,2013-10-04 06:07:00,
2013-10-04 01:10:00,52.0,52.0,-100.00,North,10,5.0,11.0,99,-99.99,,,-99.99,,2013-10-04 06:10:00,
2013-10-04 01:49:00,52.0,52.0,-100.00,North,10,5.0,11.0,99,-99.99,,,-99.99,,2013-10-04 06:49:00,
2013-10-04 01:58:00,52.0,52.0,-100.00,North,10,5.0,11.0,99,-99.99,,,-99.99,,2013-10-04 06:58:00,
2013-10-04 02:06:00,52.0,52.0,-100.00,North,10,5.0,11.0,99,-99.99,,,-99.99,,2013-10-04 07:06:00,
2013-10-04 02:10:00,51.0,51.0,-100.00,NNE,20,5.0,13.0,99,-99.99,,,-99.99,,2013-10-04 07:10:00,
2013-10-04 02:49:00,51.0,51.0,-100.00,NNE,20,5.0,13.0,99,-99.99,,,-99.99,,2013-10-04 07:49:00,
2013-10-04 02:58:00,51.0,51.0,-100.00,NNE,20,5.0,13.0,99,-99.99,,,-99.99,,2013-10-04 07:58:00,
2013-10-04 03:06:00,51.0,51.0,-100.00,NNE,20,5.0,13.0,99,-99.99,,,-99.99,,2013-10-04 08:06:00,
2013-10-04 03:10:00,52.0,51.0,-100.00,NE,40,5.0,15.0,99,-99.99,,,-99.99,,2013-10-04 08:10:00,
2013-10-04 03:48:00,52.0,51.0,-100.00,NE,40,5.0,15.0,99,-99.99,,,-99.99,,2013-10-04 08:48:00,
2013-10-04 03:58:00,52.0,51.0,-100.00,NE,40,5.0,15.0,99,-99.99,,,-99.99,,2013-10-04 08:58:00,
2013-10-04 04:06:00,52.0,51.0,-100.00,NE,40,5.0,15.0,99,-99.99,,,-99.99,,2013-10-04 09:06:00,
2013-10-04 04:10:00,52.0,51.0,-100.00,NNE,25,4.0,12.0,99,-99.99,,,-99.99,,2013-10-04 09:10:00,
2013-10-04 04:51:00,52.0,51.0,-100.00,NNE,25,4.0,12.0,99,-99.99,,,-99.99,,2013-10-04 09:51:00,
2013-10-04 05:00:00,52.0,51.0,-100.00,NNE,25,4.0,12.0,99,-99.99,,,-99.99,,2013-10-04 10:00:00,
2013-10-04 05:09:00,52.0,51.0,-100.00,NNE,25,4.0,12.0,99,-99.99,,,-99.99,,2013-10-04 10:09:00,
2013-10-04 05:11:00,52.0,51.0,-100.00,NNE,30,6.0,17.0,99,-99.99,,,-99.99,,2013-10-04 10:11:00,
2013-10-04 05:51:00,52.0,51.0,-100.00,NNE,30,6.0,17.0,99,-99.99,,,-99.99,,2013-10-04 10:51:00,
2013-10-04 06:00:00,52.0,51.0,-100.00,NNE,30,6.0,17.0,99,-99.99,,,-99.99,,2013-10-04 11:00:00,
2013-10-04 06:09:00,52.0,51.0,-100.00,NNE,30,6.0,17.0,99,-99.99,,,-99.99,,2013-10-04 11:09:00,
2013-10-04 06:10:00,52.0,51.0,-100.00,NE,35,6.0,14.0,99,-99.99,,,-99.99,,2013-10-04 11:10:00,
2013-10-04 06:51:00,52.0,51.0,-100.00,NE,35,6.0,14.0,99,-99.99,,,-99.99,,2013-10-04 11:51:00,
2013-10-04 07:00:00,52.0,51.0,-100.00,NE,35,6.0,14.0,99,-99.99,,,-99.99,,2013-10-04 12:00:00,
2013-10-04 07:08:00,52.0,51.0,-100.00,NE,35,6.0,14.0,99,-99.99,,,-99.99,,2013-10-04 12:08:00,
2013-10-04 07:50:00,52.0,52.0,-100.00,NNE,20,6.0,12.0,99,-99.99,,,-99.99,,2013-10-04 12:50:00,
2013-10-04 08:00:00,52.0,52.0,-100.00,NNE,20,6.0,12.0,99,-99.99,,,-99.99,,2013-10-04 13:00:00,
2013-10-04 08:08:00,52.0,52.0,-100.00,NNE,20,6.0,12.0,99,-99.99,,,-99.99,,2013-10-04 13:08:00,
2013-10-04 08:10:00,52.0,52.0,-100.00,East,95,2.0,9.0,99,-99.99,,,-99.99,,2013-10-04 13:10:00,
2013-10-04 08:50:00,52.0,52.0,-100.00,East,95,2.0,9.0,99,-99.99,,,-99.99,,2013-10-04 13:50:00,
2013-10-04 08:59:00,52.0,52.0,-100.00,East,95,2.0,9.0,99,-99.99,,,-99.99,,2013-10-04 13:59:00,
2013-10-04 09:08:00,52.0,52.0,-100.00,East,95,2.0,9.0,99,-99.99,,,-99.99,,2013-10-04 14:08:00,
2013-10-04 09:10:00,53.0,52.0,-100.00,NNE,25,5.0,14.0,95,-99.99,,,-99.99,,2013-10-04 14:10:00,
2013-10-04 09:51:00,53.0,52.0,-100.00,NNE,25,5.0,14.0,95,-99.99,,,-99.99,,2013-10-04 14:51:00,
2013-10-04 10:00:00,53.0,52.0,-100.00,NNE,25,5.0,14.0,95,-99.99,,,-99.99,,2013-10-04 15:00:00,
2013-10-04 10:09:00,53.0,52.0,-100.00,NNE,25,5.0,14.0,95,-99.99,,,-99.99,,2013-10-04 15:09:00,
2013-10-04 10:11:00,55.0,51.0,-100.00,NNE,15,6.0,17.0,89,-99.99,,,-99.99,,2013-10-04 15:11:00,
2013-10-04 10:51:00,55.0,51.0,-100.00,NNE,15,6.0,17.0,89,-99.99,,,-99.99,,2013-10-04 15:51:00,
2013-10-04 11:00:00,55.0,51.0,-100.00,NNE,15,6.0,17.0,89,-99.99,,,-99.99,,2013-10-04 16:00:00,
2013-10-04 11:09:00,55.0,51.0,-100.00,NNE,15,6.0,17.0,89,-99.99,,,-99.99,,2013-10-04 16:09:00,
2013-10-04 11:51:00,57.0,50.0,-100.00,East,80,8.0,20.0,78,-99.99,,,-99.99,,2013-10-04 16:51:00,
2013-10-04 12:00:00,57.0,50.0,-100.00,East,80,8.0,20.0,78,-99.99,,,-99.99,,2013-10-04 17:00:00,
2013-10-04 12:09:00,58.0,50.0,-100.00,NNE,30,5.0,16.0,77,-99.99,,,-99.99,,2013-10-04 17:09:00,
2013-10-04 13:02:00,58.0,50.0,-100.00,NNE,30,5.0,16.0,77,-99.99,,,-99.99,,2013-10-04 18:02:00,
2013-10-04 13:53:00,57.0,50.0,-100.00,NNE,20,7.0,18.0,77,-99.99,,,-99.99,,2013-10-04 18:53:00,
2013-10-04 14:02:00,57.0,50.0,-100.00,NNE,20,7.0,18.0,77,-99.99,,,-99.99,,2013-10-04 19:02:00,
2013-10-04 14:10:00,58.0,50.0,-100.00,NNE,20,6.0,16.0,77,-99.99,,,-99.99,,2013-10-04 19:10:00,
2013-10-04 14:43:00,58.0,50.0,-100.00,NNE,20,6.0,16.0,77,-99.99,,,-99.99,,2013-10-04 19:43:00,
2013-10-04 14:52:00,58.0,50.0,-100.00,NNE,20,6.0,16.0,77,-99.99,,,-99.99,,2013-10-04 19:52:00,
2013-10-04 15:02:00,58.0,50.0,-100.00,NNE,20,6.0,16.0,77,-99.99,,,-99.99,,2013-10-04 20:02:00,
2013-10-04 15:10:00,57.0,51.0,-100.00,ESE,120,2.0,12.0,81,-99.99,,,-99.99,,2013-10-04 20:10:00,
2013-10-04 15:43:00,57.0,51.0,-100.00,ESE,120,2.0,12.0,81,-99.99,,,-99.99,,2013-10-04 20:43:00,
2013-10-04 15:53:00,57.0,51.0,-100.00,ESE,120,2.0,12.0,81,-99.99,,,-99.99,,2013-10-04 20:53:00,
2013-10-04 16:01:00,57.0,51.0,-100.00,ESE,120,2.0,12.0,81,-99.99,,,-99.99,,2013-10-04 21:01:00,
2013-10-04 16:10:00,55.0,51.0,-100.00,NNE,15,7.0,15.0,88,-99.99,,,-99.99,,2013-10-04 21:10:00,
2013-10-04 16:43:00,55.0,51.0,-100.00,NNE,15,7.0,15.0,88,-99.99,,,-99.99,,2013-10-04 21:43:00,
2013-10-04 16:54:00,55.0,51.0,-100.00,NNE,15,7.0,15.0,88,-99.99,,,-99.99,,2013-10-04 21:54:00,
2013-10-04 17:03:00,55.0,51.0,-100.00,NNE,15,7.0,15.0,88,-99.99,,,-99.99,,2013-10-04 22:03:00,
2013-10-04 17:43:00,54.0,51.0,-100.00,NNE,20,4.0,16.0,90,-99.99,,,-99.99,,2013-10-04 22:43:00,
2013-10-04 17:52:00,54.0,51.0,-100.00,NNE,20,4.0,16.0,90,-99.99,,,-99.99,,2013-10-04 22:52:00,
2013-10-04 18:03:00,54.0,51.0,-100.00,NNE,20,4.0,16.0,90,-99.99,,,-99.99,,2013-10-04 23:03:00,
2013-10-04 18:11:00,53.0,51.0,-100.00,NNE,20,9.0,19.0,94,-99.99,,,-99.99,,2013-10-04 23:11:00,
2013-10-04 18:42:00,53.0,51.0,-100.00,NNE,20,9.0,19.0,94,-99.99,,,-99.99,,2013-10-04 23:42:00,
2013-10-04 18:53:00,53.0,51.0,-100.00,NNE,20,9.0,19.0,94,-99.99,,,-99.99,,2013-10-04 23:53:00,
2013-10-04 19:02:00,53.0,51.0,-100.00,NNE,20,9.0,19.0,94,-99.99,,,-99.99,,2013-10-05 00:02:00,
2013-10-04 19:10:00,52.0,51.0,-100.00,NE,40,4.0,18.0,96,-99.99,,,-99.99,,2013-10-05 00:10:00,
2013-10-04 19:42:00,52.0,51.0,-100.00,NE,40,4.0,18.0,96,-99.99,,,-99.99,,2013-10-05 00:42:00,
2013-10-04 19:53:00,52.0,51.0,-100.00,NE,40,4.0,18.0,96,-99.99,,,-99.99,,2013-10-05 00:53:00,
2013-10-04 20:02:00,52.0,51.0,-100.00,NE,40,4.0,18.0,96,-99.99,,,-99.99,,2013-10-05 01:02:00,
2013-10-04 20:10:00,52.0,51.0,-100.00,NE,50,4.0,12.0,97,-99.99,,,-99.99,,2013-10-05 01:10:00,
2013-10-04 20:43:00,52.0,51.0,-100.00,NE,50,4.0,12.0,97,-99.99,,,-99.99,,2013-10-05 01:43:00,
2013-10-04 20:52:00,52.0,51.0,-100.00,NE,50,4.0,12.0,97,-99.99,,,-99.99,,2013-10-05 01:52:00,
2013-10-04 21:02:00,52.0,51.0,-100.00,NE,50,4.0,12.0,97,-99.99,,,-99.99,,2013-10-05 02:02:00,
2013-10-04 21:10:00,52.0,51.0,-100.00,NE,45,4.0,12.0,97,-99.99,,,-99.99,,2013-10-05 02:10:00,
2013-10-04 21:42:00,52.0,51.0,-100.00,NE,45,4.0,12.0,97,-99.99,,,-99.99,,2013-10-05 02:42:00,
2013-10-04 21:52:00,52.0,51.0,-100.00,NE,45,4.0,12.0,97,-99.99,,,-99.99,,2013-10-05 02:52:00,
2013-10-04 22:02:00,52.0,51.0,-100.00,NE,45,4.0,12.0,97,-99.99,,,-99.99,,2013-10-05 03:02:00,
2013-10-04 22:11:00,51.0,50.0,-100.00,NNE,25,9.0,17.0,97,-99.99,,,-99.99,,2013-10-05 03:11:00,
2013-10-04 22:45:00,51.0,50.0,-100.00,NNE,25,9.0,17.0,97,-99.99,,,-99.99,,2013-10-05 03:45:00,
2013-10-04 22:55:00,51.0,50.0,-100.00,NNE,25,9.0,17.0,97,-99.99,,,-99.99,,2013-10-05 03:55:00,
2013-10-04 23:04:00,51.0,50.0,-100.00,NNE,25,9.0,17.0,97,-99.99,,,-99.99,,2013-10-05 04:04:00,
2013-10-04 23:10:00,51.0,50.0,-100.00,NE,40,3.0,12.0,97,-99.99,,,-99.99,,2013-10-05 04:10:00,
2013-10-04 23:44:00,51.0,50.0,-100.00,NE,40,3.0,12.0,97,-99.99,,,-99.99,,2013-10-05 04:44:00,
2013-10-04 23:53:00,51.0,50.0,-100.00,NE,40,3.0,12.0,97,-99.99,,,-99.99,,2013-10-05 04:53:00,